Theta_e
321 321 321 320 318 319 320 321 322 322 322 319 319 322 321 323 323 325 326 326 328 329 327 329 333 333 332 332 334 333 333 334 333 332 333 335 332 330 326 321 319 316 313 309 318 327 328 328 326 323 326 330 329 328 329 330 330 329 329 327 324 321 322 323 322 324 324 325 324 324 322 320 323 324 326 328 329 325 325 326 324 323 326 328 326 322 322 325 323 322 324 325 325 325 326 326 326
321 321 321 320 319 320 320 322 322 320 319 318 319 321 321 322 324 326 327 327 329 329 327 330 333 332 331 331 333 333 334 333 330 333 334 333 332 329 323 319 318 314 311 308 317 328 329 327 324 322 324 330 329 329 330 332 332 329 331 332 329 325 322 323 325 326 326 328 327 326 326 323 322 326 328 328 329 328 328 329 328 327 327 326 324 321 322 324 323 321 323 324 324 324 325 326 326
321 321 321 320 321 320 320 322 321 318 317 316 319 321 321 323 325 326 326 327 330 328 328 331 332 331 331 331 332 333 335 332 330 335 334 333 333 328 321 318 316 313 311 308 318 329 330 325 323 320 320 328 330 329 331 333 332 328 330 332 330 326 322 323 325 328 328 326 326 326 328 327 323 326 329 328 328 329 328 328 327 325 323 322 324 323 321 319 319 320 321 323 324 323 324 324 324
320 320 321 320 322 322 322 322 321 318 317 316 318 320 321 324 326 325 326 329 329 328 329 332 332 331 331 332 332 333 336 333 333 335 333 334 333 325 319 318 316 312 311 310 319 329 330 325 324 322 319 326 330 328 331 333 331 327 328 329 328 326 323 324 325 326 327 325 326 327 328 327 326 327 328 328 328 327 327 328 327 325 321 321 323 323 319 317 317 318 319 321 321 320 321 322 322
319 320 321 321 323 323 322 322 322 319 318 318 318 319 321 323 325 325 329 330 328 326 329 332 333 331 331 333 332 333 335 334 335 335 334 334 330 322 319 318 315 312 311 312 320 327 328 325 324 324 320 323 329 330 330 331 331 328 327 327 326 323 320 324 325 326 327 327 328 328 327 328 327 326 328 328 326 326 328 329 329 328 326 323 319 317 317 318 316 315 316 317 318 318 319 319 320
318 319 320 321 321 321 321 320 320 319 320 320 319 319 320 322 325 328 330 330 327 326 328 330 332 332 333 333 331 332 334 334 335 335 335 333 326 321 320 317 315 312 311 311 318 323 323 325 325 323 319 317 324 329 329 329 330 328 325 324 324 321 320 324 327 328 329 328 328 327 328 329 326 323 325 325 324 326 329 328 329 328 327 324 317 315 316 315 314 314 314 314 315 315 315 316 317
318 319 320 320 320 320 320 319 319 320 320 320 319 319 319 322 326 329 330 329 327 325 326 328 330 331 332 332 331 331 333 335 334 334 334 331 323 321 319 317 315 312 312 310 315 319 317 323 324 321 318 314 317 324 325 325 326 325 322 320 318 319 323 327 328 328 329 328 329 327 326 326 325 321 321 324 324 326 328 327 326 324 322 319 315 315 315 315 314 314 313 313 313 313 313 313 314
319 320 319 320 321 321 320 318 319 321 319 318 318 318 318 321 327 329 330 328 326 325 326 327 328 330 330 332 335 332 332 334 334 334 332 327 321 321 320 318 315 313 312 309 312 314 312 318 322 319 317 315 314 317 318 320 324 322 319 317 316 320 326 329 329 327 327 329 328 326 322 322 324 322 322 326 326 325 324 323 322 319 317 316 315 315 316 315 315 315 315 314 313 313 313 313 313
319 320 320 322 323 321 320 318 319 319 318 318 317 318 317 319 327 330 329 326 323 325 328 329 328 328 330 333 336 333 332 332 332 333 330 325 321 321 320 318 316 314 313 311 310 310 310 315 321 321 318 316 313 312 313 316 320 320 319 320 320 323 326 328 327 323 323 326 324 322 320 319 321 321 322 324 325 322 320 319 318 317 316 316 316 316 315 315 315 316 315 315 315 314 313 314 314
320 320 321 322 322 322 320 318 318 318 318 318 317 318 317 320 327 329 328 326 323 326 328 329 326 326 331 334 335 334 333 331 331 332 328 323 320 321 320 318 317 315 313 312 310 310 309 312 319 322 319 316 313 312 311 313 315 318 322 325 324 324 323 324 323 319 320 321 320 318 317 318 317 317 318 320 321 320 318 317 317 316 316 316 316 316 316 316 317 317 317 316 316 316 316 316 317
321 320 321 321 321 322 320 318 317 318 318 318 318 318 317 321 327 327 326 324 323 327 328 327 326 328 332 334 334 334 331 331 332 331 327 323 320 321 320 319 318 316 314 312 311 310 309 310 316 321 320 315 312 312 310 311 312 316 322 325 326 325 321 321 319 316 319 320 319 318 317 317 316 316 317 318 318 318 317 317 317 316 317 318 318 318 318 318 319 319 319 318 318 318 318 318 318
322 321 322 322 321 321 320 319 318 319 319 319 320 319 317 322 327 325 325 323 324 327 328 326 325 328 332 334 334 333 330 331 333 331 326 322 320 321 320 320 319 317 315 313 312 310 309 309 314 319 319 315 311 311 310 310 310 313 320 322 324 325 321 319 316 316 320 321 319 318 318 318 317 318 318 318 318 318 318 317 318 318 318 318 318 318 318 319 319 319 319 319 319 319 319 319 319
321 321 322 323 321 320 319 319 319 319 319 320 322 320 319 323 326 325 324 324 324 326 326 324 324 326 330 333 333 332 331 331 332 330 325 322 321 321 321 320 320 318 316 314 313 311 310 309 315 320 318 315 312 310 310 310 309 313 319 320 321 320 318 317 314 316 320 320 319 318 319 319 318 319 318 318 318 318 318 318 318 319 318 318 319 318 319 319 319 319 319 319 319 319 319 320 319
320 320 321 322 320 319 319 320 320 318 318 320 320 319 320 323 323 323 323 324 324 325 324 322 323 325 328 329 332 333 331 331 332 328 324 322 322 322 321 321 320 319 317 315 313 312 311 308 315 321 317 315 312 310 310 309 309 311 315 317 317 315 314 313 312 316 319 319 320 319 319 319 319 319 319 319 318 318 318 318 318 318 318 318 319 319 319 319 319 319 319 320 320 320 320 320 320
319 319 321 321 320 320 320 320 319 318 317 318 319 319 320 321 320 321 322 323 324 323 322 322 323 324 324 325 331 335 332 330 330 327 324 323 323 323 322 321 321 321 318 317 315 312 312 308 312 319 320 318 314 311 310 309 310 310 312 313 313 313 311 311 312 316 318 319 320 319 319 320 320 320 320 319 319 318 318 318 318 318 318 318 318 318 319 319 320 320 320 320 320 320 320 321 321
317 319 321 321 320 321 320 319 318 318 318 317 318 319 320 321 319 320 321 322 323 321 323 324 323 322 323 323 327 332 331 329 329 326 324 324 324 324 322 322 321 322 320 318 316 313 311 310 309 313 319 319 314 312 310 309 309 310 311 311 312 311 310 310 313 317 318 319 320 320 320 320 320 320 320 319 319 319 319 319 319 319 318 318 319 319 319 319 319 320 320 320 320 320 320 320 320
316 319 321 321 320 321 320 319 318 317 317 316 317 318 321 321 318 319 319 320 322 321 323 324 323 322 322 322 323 328 331 330 329 326 324 324 324 324 323 323 322 322 321 319 318 315 312 311 310 310 312 313 311 311 310 309 309 309 310 310 310 310 309 310 313 316 317 318 319 319 320 320 320 320 319 319 319 319 319 319 319 319 319 319 319 319 319 319 319 319 319 319 319 320 320 320 320
318 319 320 320 321 320 319 318 318 316 317 316 315 317 321 322 318 318 319 320 321 321 323 324 324 323 322 322 322 326 330 330 330 327 325 325 325 324 324 323 323 322 322 321 318 317 314 311 311 310 310 310 310 310 310 309 309 309 310 309 310 309 309 311 313 315 316 317 318 318 318 318 318 318 318 319 319 319 319 319 319 319 319 319 319 319 318 319 319 319 319 319 319 319 319 320 320
318 318 319 320 321 319 317 317 316 315 316 315 314 315 319 322 319 318 320 321 322 323 324 324 325 325 322 321 322 324 329 330 330 328 327 326 326 325 323 323 323 323 323 322 319 318 316 312 311 310 310 311 310 310 310 309 309 309 309 309 309 309 309 311 312 314 316 317 317 317 317 317 317 317 318 318 319 319 319 319 319 319 319 319 319 319 319 319 319 319 319 319 319 319 319 320 320
317 317 319 319 319 317 315 315 314 313 313 315 315 314 317 320 319 318 320 322 322 322 323 325 326 325 322 322 322 323 328 330 330 329 328 327 327 326 324 323 322 323 323 323 321 319 317 315 311 310 310 311 311 311 310 309 309 309 308 309 309 308 310 311 312 314 315 316 317 317 317 317 317 317 318 318 319 319 319 319 319 319 319 319 319 319 319 319 319 319 319 319 319 319 319 320 320
318 318 320 317 316 316 314 313 312 311 312 313 314 313 315 317 317 318 320 321 322 322 322 323 323 322 321 322 321 322 327 329 329 329 328 328 328 327 326 324 322 322 323 323 322 320 319 316 313 311 309 310 311 311 311 310 310 309 309 308 308 308 309 311 312 313 314 315 316 316 316 317 317 317 318 318 319 319 319 319 319 319 319 319 319 319 319 318 318 318 318 319 319 319 320 320 321
319 317 316 314 314 315 313 311 311 310 311 312 313 314 315 315 316 317 319 320 321 321 321 320 320 320 319 321 321 321 325 327 328 328 328 327 327 327 327 325 324 322 322 323 323 322 320 318 315 312 310 310 310 312 312 312 311 310 310 309 308 308 309 310 311 313 314 315 315 316 317 317 317 318 318 318 319 319 319 319 319 319 319 319 319 319 318 318 318 318 318 318 319 319 320 321 321
321 316 312 312 312 314 312 311 310 310 311 312 314 315 314 315 316 316 317 320 320 320 319 318 319 319 318 320 321 321 323 325 326 325 325 325 325 325 325 325 324 323 322 322 323 323 321 319 317 314 312 310 310 311 312 312 312 312 312 311 310 308 308 309 310 312 313 314 315 316 316 317 317 317 318 318 318 318 318 318 319 319 319 319 319 319 318 317 317 317 317 318 318 319 320 321 322
320 317 312 311 311 311 312 312 312 310 311 312 312 313 314 315 316 315 316 317 318 318 318 318 318 318 319 320 321 321 321 322 322 322 323 324 324 324 324 324 324 324 322 322 323 323 322 320 318 316 314 312 310 310 312 313 313 313 314 313 312 310 309 308 309 311 312 313 314 315 315 316 316 317 317 317 318 318 318 318 318 318 318 318 319 318 318 317 317 317 317 318 319 319 320 321 321
319 318 311 310 311 310 313 315 314 311 312 312 311 313 314 315 314 314 315 316 316 317 317 317 317 318 318 319 320 321 321 321 321 322 323 324 325 325 325 325 324 324 323 322 323 324 323 322 320 318 316 314 312 311 311 312 313 314 314 314 314 313 312 310 309 310 311 312 313 314 315 315 315 316 316 317 317 317 317 317 318 318 318 318 318 318 318 317 317 317 318 318 319 319 319 319 320
321 317 312 312 313 312 314 316 315 316 316 313 311 314 314 313 313 314 316 316 316 316 316 317 317 318 318 319 320 320 321 321 322 322 322 324 325 325 325 325 324 324 324 323 323 324 324 323 322 319 317 316 315 313 312 312 312 313 314 314 315 315 315 314 313 312 312 312 313 314 314 315 315 316 316 316 316 316 317 317 317 317 317 318 318 318 319 319 319 319 319 320 320 320 320 320 320
321 317 314 315 316 316 317 318 318 318 318 314 312 314 314 312 313 316 317 316 316 316 315 316 317 317 318 318 319 320 321 320 320 321 322 324 325 325 324 325 325 324 324 323 323 324 325 325 323 321 319 317 317 316 314 313 313 313 313 314 314 315 315 315 315 315 315 315 315 315 315 316 316 316 316 316 317 317 317 317 317 317 317 318 318 319 320 321 321 322 322 321 322 322 322 322 322
319 318 318 318 319 319 320 321 321 318 317 314 312 313 313 311 312 315 317 316 316 316 316 316 317 317 318 318 318 319 320 320 321 322 321 322 322 322 322 322 323 323 323 323 323 324 324 325 325 324 321 319 318 317 316 316 315 314 314 313 314 315 316 317 317 317 317 317 317 317 317 317 318 318 318 318 318 318 318 317 317 318 318 319 319 320 321 322 322 323 323 323 322 322 322 322 322
318 319 321 322 321 322 322 323 323 318 318 316 312 314 314 312 312 315 316 315 315 316 316 316 316 317 317 317 318 318 319 320 322 321 320 320 320 320 319 319 320 320 321 322 323 323 324 324 325 325 324 322 319 318 317 317 317 317 316 315 316 317 318 319 319 319 319 319 320 319 319 319 319 320 320 320 320 321 320 320 319 319 320 320 321 321 322 322 322 323 323 323 323 323 323 323 323
320 319 322 325 325 325 322 321 320 319 320 316 314 318 319 315 314 315 315 315 315 315 316 316 316 317 317 317 318 318 318 319 320 319 318 319 319 319 319 319 319 319 319 320 321 323 323 323 323 324 325 324 322 320 318 317 317 317 318 318 317 318 318 319 320 320 320 320 320 320 320 320 321 321 321 321 322 322 322 321 321 321 321 322 322 322 322 322 322 323 323 323 323 323 323 323 323
321 320 322 324 328 328 320 315 316 320 319 314 316 321 321 318 316 315 315 314 314 316 316 316 316 316 317 317 317 318 318 318 318 318 319 319 319 319 320 319 320 320 319 319 320 321 322 323 323 323 323 324 324 323 321 319 318 317 317 318 318 318 318 319 319 319 319 319 319 319 320 320 321 321 321 322 322 322 322 322 322 322 322 322 322 322 322 323 323 323 323 323 323 323 323 323 323
320 325 327 323 326 328 320 314 314 318 315 310 317 323 320 317 316 315 314 313 313 315 317 316 315 316 316 316 317 317 317 317 317 318 319 319 319 319 319 319 319 320 319 319 319 320 321 321 322 322 322 322 323 324 324 323 321 319 318 317 317 318 318 319 320 320 319 319 319 319 320 320 321 321 321 321 322 322 322 322 322 322 322 322 322 323 323 323 323 323 322 322 322 322 322 322 322
319 325 330 325 324 326 323 316 311 313 313 310 316 320 318 315 314 313 313 313 312 314 316 316 315 315 315 316 316 316 317 317 317 318 318 318 318 319 318 319 318 318 319 319 319 319 320 321 321 322 322 322 322 323 324 324 323 322 320 319 318 318 318 319 321 322 322 321 321 321 321 322 322 322 322 322 323 323 323 323 323 323 323 323 323 323 323 323 323 322 322 322 321 321 321 322 322
321 322 327 325 322 323 324 319 311 311 313 313 314 314 316 316 314 314 313 312 312 314 316 315 315 315 315 315 315 316 316 316 317 317 317 317 317 317 318 318 318 318 318 318 319 318 319 320 320 321 322 323 323 323 323 323 324 324 323 322 320 319 319 320 321 322 323 324 323 323 324 325 325 324 324 324 324 324 324 323 323 323 323 323 323 323 322 322 322 321 322 322 321 320 321 322 321
324 323 326 326 321 320 322 319 313 310 312 314 314 313 315 315 314 314 313 312 312 314 315 314 314 314 314 314 315 315 315 316 316 316 316 317 317 317 317 317 317 318 318 318 318 319 319 319 320 321 322 323 323 323 323 323 323 324 324 323 322 321 321 322 322 322 323 324 324 324 325 326 326 325 325 325 325 326 325 324 324 324 323 323 322 322 322 321 321 321 321 322 321 320 320 321 321
326 325 326 327 326 323 320 317 312 310 311 313 314 315 315 315 314 314 314 312 311 313 313 313 313 312 313 313 314 315 315 315 315 316 316 316 316 316 317 317 317 317 317 317 317 318 318 318 319 320 321 322 323 323 323 323 324 324 323 323 323 322 321 322 323 323 324 324 325 324 325 326 326 325 325 325 326 327 326 325 324 324 324 324 323 322 322 322 322 322 321 321 321 320 320 320 320
326 325 325 325 326 325 320 315 310 308 313 316 314 314 314 314 314 314 314 313 311 312 313 313 312 312 312 313 313 314 314 315 315 315 315 315 315 315 316 316 317 317 317 317 317 317 317 317 318 319 319 321 322 323 322 323 323 323 322 322 321 321 321 321 322 323 323 324 325 325 326 326 326 326 326 326 327 327 327 326 325 325 324 324 323 323 322 323 323 322 321 321 321 321 321 321 320
325 325 325 325 325 324 319 315 311 308 313 318 314 313 314 314 313 314 314 313 312 312 313 314 313 313 313 313 313 314 315 315 315 314 315 315 315 315 315 316 316 316 316 316 316 316 316 317 317 317 318 319 320 321 321 322 322 321 321 321 320 320 320 321 321 322 322 323 324 325 325 325 326 326 327 327 327 327 326 326 326 325 324 323 323 323 323 323 323 323 322 322 321 321 321 321 320
324 323 324 326 324 321 319 314 310 309 313 318 315 313 315 315 314 314 313 313 313 313 313 313 314 314 313 313 314 314 314 315 315 315 315 314 315 314 314 315 315 316 316 316 316 315 316 316 316 316 316 317 318 319 320 321 321 321 321 321 321 320 320 320 320 321 322 323 323 324 324 324 324 325 326 327 327 327 327 327 326 325 325 325 325 324 323 323 322 323 323 322 322 321 321 320 321
321 322 324 326 320 321 324 315 310 310 311 313 312 311 314 315 315 315 314 314 313 313 313 313 313 313 313 314 314 314 314 314 315 315 315 314 314 314 314 314 315 315 316 315 315 316 316 316 315 315 315 315 316 317 318 319 320 320 321 321 321 321 321 321 321 322 322 323 323 323 323 322 322 322 324 327 327 327 327 327 326 325 325 325 325 323 322 322 322 323 323 322 321 322 321 320 321
319 320 324 324 319 320 321 315 312 312 310 309 311 315 318 318 319 318 316 314 312 313 313 312 312 312 313 313 314 314 314 314 314 315 316 315 315 315 314 314 314 314 315 315 315 315 315 315 315 315 315 315 315 315 316 317 319 320 321 321 322 322 322 322 322 321 322 322 322 322 322 321 321 322 324 326 327 327 327 327 326 325 325 325 324 324 323 322 322 322 322 322 322 321 321 320 321
320 319 321 322 321 319 316 314 316 320 318 312 312 321 323 318 318 318 316 314 313 313 312 312 312 312 313 313 313 315 315 315 315 315 316 315 316 315 315 314 314 314 314 314 315 315 315 315 315 315 315 315 314 314 314 315 317 318 319 320 320 321 321 320 319 319 320 320 320 320 320 321 321 322 324 325 325 326 326 326 326 325 325 325 325 326 324 322 322 322 322 322 322 321 320 320 320
323 319 318 319 319 318 316 315 319 323 322 313 311 319 322 318 317 317 316 316 315 314 313 313 312 311 312 312 314 315 315 315 316 315 316 316 316 316 316 315 315 314 314 314 314 314 314 314 315 315 315 314 314 314 314 314 315 315 316 317 318 318 318 318 317 317 318 318 319 320 320 320 320 322 323 323 324 325 325 324 325 325 325 326 326 326 324 322 321 323 322 322 322 321 320 319 319
324 317 315 317 317 318 317 317 319 319 316 314 313 315 317 317 318 317 316 317 317 316 316 315 313 313 313 313 314 315 315 316 316 316 316 316 317 316 316 316 315 315 314 314 314 314 314 314 314 314 314 314 314 314 314 314 313 313 314 315 316 317 317 317 317 317 317 318 319 319 320 320 320 322 323 322 323 325 326 324 323 324 325 325 326 325 324 323 322 324 323 321 322 324 323 322 323
319 313 314 317 316 317 316 315 317 314 315 320 317 314 319 322 318 315 313 314 317 317 317 317 316 315 315 315 315 315 316 316 316 316 317 317 317 316 317 316 316 316 315 315 314 314 314 314 314 314 313 313 313 313 314 313 313 313 313 313 314 314 315 316 317 318 317 318 319 319 320 320 321 323 323 323 322 323 326 325 325 327 325 323 325 325 324 323 322 323 323 321 322 324 323 323 323
315 312 314 315 314 315 316 317 317 315 316 322 319 315 321 324 321 318 315 314 317 318 317 318 318 317 316 315 315 315 315 315 316 316 316 317 316 316 317 316 316 316 315 315 314 314 314 314 314 314 313 313 313 313 313 313 313 313 313 313 313 313 314 315 316 317 317 317 318 318 319 320 322 323 323 324 322 322 323 321 325 327 323 322 323 322 322 321 321 323 324 321 320 322 323 323 323
313 313 313 313 315 316 317 318 318 318 320 322 319 316 319 323 323 322 319 315 315 317 317 318 317 316 316 315 315 315 315 315 315 315 315 316 316 316 316 316 316 317 316 316 315 314 314 314 314 314 314 314 313 313 313 313 313 313 313 313 313 313 313 314 315 316 316 316 316 317 319 320 321 322 323 324 323 323 322 320 321 321 321 325 323 321 323 320 319 325 327 322 321 323 325 325 323
313 314 314 316 317 316 317 316 316 321 324 318 313 313 316 321 322 319 318 315 312 313 315 315 315 315 315 314 313 313 313 313 313 313 314 314 315 315 315 315 316 316 316 315 316 315 314 314 314 314 314 314 314 314 313 313 313 313 312 312 313 313 313 314 314 314 314 314 314 315 318 318 320 322 323 324 324 323 322 321 320 318 320 323 321 324 327 320 317 322 324 322 321 321 322 321 319
314 314 317 320 319 319 321 320 319 322 321 311 308 311 314 318 319 317 317 316 314 313 313 313 314 314 313 312 312 312 313 313 312 313 313 313 313 314 313 314 314 314 315 315 315 315 315 315 314 314 314 314 314 314 313 313 313 313 313 312 313 312 313 313 313 314 313 313 314 314 316 317 318 320 322 324 324 324 323 321 321 320 319 319 319 322 325 320 316 317 320 321 319 317 318 318 317
314 316 320 323 321 323 327 324 321 323 318 309 308 312 315 318 318 315 316 316 315 313 312 312 312 312 312 312 312 313 314 314 314 313 313 313 313 313 313 312 312 313 313 313 313 314 314 315 315 315 315 314 314 314 314 314 313 313 313 313 313 312 313 313 313 313 313 313 314 315 316 316 317 318 320 323 324 325 324 322 321 321 320 320 320 320 320 318 316 318 322 322 317 317 319 318 316
315 316 319 321 321 325 328 325 324 324 318 310 310 315 320 321 317 312 312 313 312 312 312 310 310 310 311 312 312 313 313 313 313 312 313 313 313 313 313 313 313 313 313 313 313 313 313 314 314 314 314 314 314 314 314 314 314 314 313 313 313 312 313 313 313 313 313 313 314 315 316 317 317 318 320 323 325 326 326 324 323 322 321 321 320 320 319 317 317 320 322 320 316 317 317 315 313
314 314 317 319 319 320 319 318 317 317 317 314 312 315 318 317 315 313 314 314 312 312 311 309 310 310 310 311 311 311 311 311 311 312 312 312 312 313 313 313 313 313 313 313 313 313 313 313 313 314 314 314 313 313 314 314 314 313 313 313 312 312 313 313 313 314 313 314 314 315 316 316 317 319 322 325 327 328 327 326 324 323 322 321 321 321 318 317 318 318 317 318 317 316 314 313 313
314 314 316 316 314 314 315 314 310 311 318 320 314 315 316 316 317 315 313 314 313 313 312 310 310 310 310 311 310 310 311 311 311 312 312 312 312 312 312 313 313 313 313 313 313 313 313 313 313 313 314 314 313 313 312 312 312 312 312 312 312 313 313 313 314 314 315 315 314 315 316 317 318 320 323 326 328 328 328 327 325 324 323 322 322 321 319 319 321 319 317 319 317 314 313 313 312
314 315 316 314 313 314 315 316 313 312 318 319 313 315 317 317 319 315 312 314 314 315 314 312 310 310 311 311 310 310 311 311 311 311 312 312 312 312 312 312 312 312 313 313 312 313 313 313 313 313 313 313 313 312 311 311 311 312 312 312 312 313 313 313 314 314 316 316 316 316 316 317 318 320 324 327 329 329 328 327 326 324 323 322 321 320 318 319 320 319 317 317 315 313 313 312 311
312 315 315 316 317 318 316 317 318 316 318 318 314 312 313 315 317 315 314 316 315 314 314 312 311 311 311 310 310 311 310 311 312 312 312 312 312 312 312 312 313 313 313 313 313 313 313 313 313 313 313 312 312 311 311 310 310 311 311 312 313 313 313 314 315 315 317 318 317 317 318 319 320 322 325 328 329 329 328 328 326 325 323 322 321 320 319 318 317 316 315 314 313 312 312 311 311
310 312 314 314 316 318 317 317 318 318 319 318 316 314 314 315 314 314 316 315 313 314 314 312 312 312 311 310 310 310 311 311 312 312 312 312 312 312 312 312 312 312 313 313 312 313 313 312 313 313 313 313 312 311 311 310 311 311 311 311 312 313 314 315 316 317 318 318 319 319 320 321 323 324 326 328 329 329 328 327 326 325 324 322 320 320 319 318 316 314 313 312 312 312 311 311 310
312 313 315 313 312 313 315 315 315 315 317 316 316 317 317 314 312 313 315 314 314 314 313 314 313 311 311 311 310 310 311 311 312 312 312 312 312 312 312 312 312 311 312 312 312 312 312 312 312 312 312 313 313 312 311 311 311 311 311 311 311 312 313 315 316 318 318 319 320 321 322 324 325 326 327 328 328 328 327 327 326 325 324 322 320 319 317 316 315 313 312 312 312 311 311 310 309
314 314 315 316 313 312 316 317 313 311 313 313 313 316 317 314 311 311 313 313 313 311 310 311 311 309 310 310 310 310 311 311 312 312 312 312 311 311 312 312 312 311 311 312 312 312 312 313 313 312 312 312 312 313 313 312 311 311 311 311 311 311 312 314 315 317 318 319 320 322 324 325 326 327 327 327 328 328 327 327 326 325 324 322 319 318 316 315 313 312 312 312 311 311 310 309 309
Wind_Speed
7 7 8 8 9 7 5 6 2 2 1 1 2 0 3 1 1 2 5 5 3 5 3 3 9 11 5 1 2 3 4 1 2 2 1 7 16 18 14 13 10 7 6 6 9 9 8 8 9 10 11 13 14 12 14 14 14 13 9 8 8 9 9 9 10 10 11 11 11 11 11 12 13 14 15 14 14 15 15 16 15 16 17 17 16 17 18 18 18 19 18 17 16 16 15 15 15
7 7 8 7 9 7 3 4 2 1 1 2 2 1 3 3 3 5 7 5 2 5 6 5 9 10 2 2 1 1 3 2 2 3 5 15 19 17 15 13 10 8 7 8 10 9 9 9 9 11 11 13 14 12 13 14 14 12 9 9 8 7 7 9 11 11 11 11 11 11 11 11 13 14 14 14 15 15 16 16 16 16 16 16 16 17 18 18 18 18 18 16 15 15 14 14 13
6 6 7 7 7 6 2 2 1 0 1 2 2 2 3 4 5 4 5 3 5 8 9 8 9 6 2 2 2 1 3 1 3 6 10 17 16 17 17 13 11 9 8 9 11 9 9 9 10 11 10 11 13 13 12 13 13 11 10 9 8 7 7 9 11 11 9 10 11 12 12 12 13 14 14 14 15 15 16 17 16 16 16 17 17 18 18 18 18 18 18 17 15 14 14 13 13
6 5 6 6 5 4 1 1 1 1 1 1 2 4 4 5 6 5 6 6 9 9 8 10 7 5 4 2 0 1 3 3 4 8 14 15 12 18 17 14 12 10 9 10 11 9 9 10 10 10 11 11 12 12 11 11 11 10 9 8 7 5 7 9 10 11 9 10 12 12 13 12 13 14 14 14 14 16 17 19 18 17 16 17 18 18 19 19 19 18 18 17 15 14 14 13 13
5 5 5 6 4 2 1 0 1 2 2 1 2 3 5 5 5 6 8 9 11 8 6 9 4 4 4 1 0 1 3 4 6 8 12 14 16 19 17 14 13 10 10 10 10 9 9 11 10 9 11 11 11 11 11 10 9 10 9 7 6 5 7 10 11 12 12 12 12 12 13 13 13 14 14 14 15 17 19 20 18 17 16 16 17 18 19 19 19 18 18 17 16 15 15 14 14
4 4 4 4 2 1 1 1 1 1 3 1 2 3 3 6 6 10 11 9 8 5 6 7 2 4 3 1 2 2 5 5 6 9 11 16 20 19 16 15 13 11 10 10 10 9 9 9 9 8 9 11 11 9 9 9 8 8 8 8 6 5 9 12 13 14 13 12 11 11 14 14 13 14 15 15 16 18 18 19 18 17 16 16 17 19 19 19 19 18 18 17 17 16 16 15 15
3 2 4 2 3 2 2 0 1 1 2 1 3 3 2 7 9 12 12 8 5 3 6 6 3 4 2 2 3 5 8 6 7 11 14 18 21 18 16 15 13 12 10 10 10 9 9 8 9 7 7 9 10 9 7 8 9 7 7 8 7 7 11 12 11 12 13 13 11 10 12 14 13 14 16 15 16 17 17 17 17 17 17 17 18 19 18 18 18 18 18 17 17 17 16 16 15
2 1 2 1 1 1 1 0 0 1 1 1 2 1 2 6 11 13 12 7 4 4 5 6 6 4 2 3 3 6 8 9 11 14 19 21 21 18 16 15 13 12 10 11 10 9 8 7 9 8 7 8 9 9 7 8 9 8 8 8 7 9 12 11 9 11 13 12 11 10 12 13 13 14 15 16 16 16 16 16 17 17 17 17 18 18 18 18 18 18 17 17 17 17 17 17 16
1 1 1 1 1 0 0 1 0 1 0 2 2 2 0 6 10 11 12 5 3 5 4 6 7 4 3 4 3 6 7 11 15 17 22 22 21 18 15 14 12 11 10 10 10 9 8 7 8 8 9 9 8 8 7 7 9 10 10 10 9 11 12 11 9 10 12 12 12 12 13 14 14 15 15 16 16 16 16 16 17 17 17 17 17 17 17 17 17 17 17 17 16 16 16 16 16
1 1 1 0 1 1 1 0 1 1 1 1 3 4 2 9 11 9 11 5 3 5 5 8 6 3 4 5 3 5 9 14 16 19 23 22 21 19 16 13 11 9 8 10 10 9 8 7 7 8 8 9 8 6 5 6 10 12 11 10 9 10 11 10 8 10 12 13 13 13 14 15 15 16 16 16 16 16 16 16 16 16 16 16 16 16 17 17 16 16 16 16 16 15 15 15 15
1 2 1 1 1 2 1 0 0 0 1 2 3 4 5 11 12 8 8 4 4 4 7 9 5 4 5 3 4 7 14 17 16 20 22 22 21 19 17 14 11 9 8 9 10 10 8 7 7 7 7 8 8 6 5 6 9 11 11 11 10 9 9 9 8 10 14 13 14 15 15 16 16 17 16 16 15 15 15 16 16 15 15 15 15 15 16 16 16 15 15 15 15 14 14 14 14
2 1 1 3 1 1 1 1 1 2 2 2 1 4 7 13 12 10 9 5 6 5 8 9 3 5 5 2 4 10 17 17 16 21 22 21 20 18 17 15 13 10 8 8 9 10 9 8 8 7 7 7 8 7 7 7 7 9 11 11 11 10 9 9 9 11 14 14 14 15 16 16 16 16 15 15 15 14 14 14 14 14 14 14 15 15 15 16 15 15 15 14 14 14 13 13 13
2 1 2 2 0 0 0 1 1 2 2 1 2 3 10 14 11 10 11 6 7 6 7 9 4 4 3 1 6 13 18 17 18 21 22 21 20 18 17 15 14 10 8 9 9 10 9 9 8 8 7 7 9 8 8 7 6 8 10 10 10 10 10 10 10 12 14 14 14 15 15 16 15 15 14 14 14 13 13 13 13 13 14 14 14 14 15 15 15 14 13 13 13 13 13 13 12
4 1 2 1 1 0 1 1 0 1 0 3 3 4 10 9 7 7 10 7 8 7 6 10 7 3 3 3 6 13 18 20 21 22 22 21 20 18 16 15 14 11 9 9 10 10 10 9 9 9 8 8 9 9 8 8 7 8 8 9 9 9 10 10 11 14 15 15 15 15 15 15 15 14 14 13 13 12 12 12 12 12 13 13 13 13 13 13 13 13 12 12 12 12 12 12 12
4 2 1 1 1 1 2 0 1 1 2 4 2 6 8 6 5 7 8 7 7 8 7 9 10 3 2 4 5 12 19 22 24 22 23 21 20 19 17 16 14 13 10 9 10 10 11 11 10 9 9 9 9 9 9 8 8 8 8 8 9 11 11 12 13 15 15 15 15 15 15 14 14 13 13 12 11 11 11 11 11 11 12 12 12 12 12 12 12 11 11 11 10 10 10 10 11
5 2 0 2 2 2 2 1 1 2 3 4 1 7 7 5 6 7 7 6 4 10 8 7 13 6 1 3 3 12 21 23 24 23 23 22 21 20 19 18 16 15 13 11 10 11 12 12 11 10 10 10 10 9 9 9 9 8 9 9 10 11 12 13 14 15 15 15 15 14 14 13 12 12 11 11 10 10 10 10 10 10 10 10 10 10 10 10 10 9 9 9 9 9 9 9 10
5 0 2 2 3 2 2 3 2 1 2 3 2 7 7 5 7 6 6 7 4 9 11 8 14 10 4 5 4 13 23 23 25 25 24 24 23 22 21 20 19 18 16 14 12 11 12 12 12 11 10 11 11 11 10 10 10 9 9 10 11 11 12 13 14 15 15 15 15 14 13 12 11 10 10 9 9 8 8 8 9 8 8 8 8 8 8 8 8 7 7 7 8 8 8 8 9
2 1 2 3 3 2 1 1 1 0 1 3 1 6 8 4 5 6 4 7 6 8 12 11 12 13 9 6 5 14 23 24 25 26 26 26 25 25 24 23 22 20 19 17 15 13 12 13 13 12 11 11 12 12 11 11 10 10 10 10 11 12 12 13 13 14 14 14 14 13 12 11 10 9 9 8 7 7 7 7 7 7 6 6 6 6 6 6 6 6 6 6 6 7 7 7 8
1 1 2 3 1 1 1 1 0 1 2 3 1 4 8 5 3 6 6 5 7 7 10 11 11 14 14 10 8 15 24 25 26 27 27 27 26 26 25 25 23 22 20 18 16 14 13 13 13 14 13 12 13 13 12 11 11 11 11 11 12 12 13 13 13 13 13 14 13 12 11 10 9 8 8 7 7 6 5 5 5 4 4 4 4 4 4 4 4 5 5 5 5 5 6 6 6
2 2 4 1 2 2 1 0 0 2 3 3 1 3 7 8 5 6 6 4 7 10 10 11 13 17 17 14 11 15 24 27 27 27 27 27 27 26 26 25 24 22 21 19 17 16 14 13 13 14 14 13 13 13 13 12 12 12 11 12 12 13 13 13 13 13 13 13 12 12 10 10 8 8 7 7 6 5 5 4 3 3 2 2 2 2 2 3 3 3 3 4 4 4 4 5 5
3 3 3 3 4 2 3 1 1 2 4 3 2 2 4 7 9 8 6 5 8 13 15 14 16 19 19 18 14 16 25 28 28 28 28 28 28 27 27 26 24 22 21 19 19 17 16 14 13 14 15 15 15 15 14 13 13 12 12 12 12 13 13 14 13 13 13 12 12 11 10 9 9 8 7 7 6 5 4 4 3 2 2 1 0 1 1 2 3 3 4 4 4 4 4 5 5
4 3 1 6 5 3 3 0 3 4 3 3 3 3 2 3 9 11 10 9 7 7 12 15 17 17 17 18 17 17 24 28 29 29 29 29 29 28 28 27 25 24 23 21 20 19 17 16 14 14 15 15 16 16 15 15 14 13 13 13 13 13 13 14 13 13 12 12 12 11 10 9 9 8 7 7 6 5 5 4 4 3 3 3 2 2 2 3 3 4 4 5 5 6 6 6 6
4 3 3 6 5 2 2 2 5 5 4 3 3 3 3 3 6 10 15 17 13 9 9 9 12 17 16 17 19 19 22 27 29 29 29 28 29 29 28 28 27 26 25 23 21 20 19 18 16 15 15 15 16 17 17 16 15 15 14 14 13 13 13 13 13 13 12 12 11 11 10 9 9 8 7 7 6 6 6 5 5 5 4 4 4 4 4 4 5 5 6 6 7 7 7 8 7
6 3 5 6 4 2 2 4 6 6 5 6 5 4 4 5 5 6 15 20 20 19 14 8 7 12 16 18 20 20 21 23 25 26 27 28 28 28 28 27 27 26 26 24 23 22 21 20 18 17 15 15 16 17 18 17 17 16 15 15 14 14 14 14 13 13 13 12 12 11 11 10 9 9 8 7 7 7 7 6 6 6 6 6 6 6 6 6 7 7 8 8 8 8 8 9 9
8 4 5 6 4 2 3 6 5 6 7 7 7 7 6 8 6 6 16 21 19 19 18 14 9 8 14 19 21 21 22 22 23 25 28 29 28 28 28 28 28 28 27 26 24 24 22 21 20 18 17 16 16 17 18 18 18 17 16 16 15 15 14 14 14 14 13 13 12 12 11 11 10 9 9 9 8 8 8 8 8 8 8 8 8 8 8 8 8 9 9 9 9 9 10 10 10
7 5 5 5 3 3 5 5 4 8 12 9 7 7 6 7 7 9 16 17 15 16 18 19 16 12 13 16 20 22 23 23 23 24 26 27 28 29 30 30 30 29 28 27 26 25 23 23 22 20 19 17 17 17 18 18 18 17 17 16 16 16 15 15 15 15 15 14 13 13 12 12 11 11 10 10 10 9 9 10 10 10 10 10 10 10 10 10 10 10 10 11 11 11 11 12 11
4 7 5 3 5 6 6 6 8 12 13 9 7 6 4 4 5 6 7 5 6 10 15 18 18 17 15 15 19 22 23 23 22 23 25 27 28 29 30 31 31 30 29 29 28 26 25 24 23 22 21 20 19 18 18 18 18 17 17 17 17 16 16 16 16 16 15 15 14 14 13 13 12 12 12 12 11 11 11 12 12 11 12 12 12 12 11 11 11 12 12 13 13 13 13 14 13
5 6 4 4 7 9 10 11 12 10 8 6 6 7 5 3 5 7 9 7 6 6 11 16 19 20 18 17 18 21 23 23 24 24 25 26 26 27 28 30 31 30 30 30 29 28 27 26 24 23 23 22 21 20 19 19 18 17 18 18 17 17 17 17 17 16 16 15 15 15 14 14 14 14 14 13 13 13 13 14 14 13 13 14 13 13 13 13 13 14 14 14 15 15 15 15 15
6 5 2 2 4 8 11 12 12 8 6 4 1 7 8 7 10 15 15 13 8 7 11 14 18 20 20 20 19 21 23 24 26 26 26 25 25 25 26 27 29 30 30 30 30 29 28 26 26 25 25 25 24 23 22 21 19 19 19 18 18 18 18 18 18 17 16 16 16 16 16 15 15 15 15 15 15 15 15 16 15 15 15 15 15 15 15 15 15 15 16 16 17 17 16 15 15
5 3 1 2 4 6 6 8 10 9 9 6 3 7 8 6 13 19 17 14 10 10 13 15 17 19 21 22 22 22 23 25 26 25 25 26 25 24 24 24 26 29 29 29 30 29 29 28 27 26 27 27 26 25 24 23 22 21 20 20 19 20 20 20 19 18 18 18 18 17 17 17 17 16 16 16 17 17 18 17 17 17 17 17 17 17 17 17 17 17 18 19 17 16 15 16 17
4 3 1 2 4 3 3 4 7 8 9 10 8 8 8 4 9 13 14 14 12 12 15 16 17 18 21 22 23 24 24 25 25 25 27 26 25 25 25 24 25 28 28 28 29 28 29 29 28 27 28 28 27 26 26 26 24 23 23 22 21 21 21 21 20 20 20 20 20 19 19 19 18 18 18 19 19 20 20 19 19 18 19 19 18 19 18 18 19 19 20 19 14 11 12 13 15
2 3 3 3 5 3 3 3 5 5 4 10 10 7 7 7 10 12 13 15 15 15 15 17 19 19 20 21 22 24 25 25 25 27 29 27 26 26 26 25 25 27 27 27 27 27 29 29 29 28 28 28 28 27 27 26 26 26 25 25 24 23 23 23 22 22 22 22 22 22 21 20 20 20 20 20 20 21 21 20 19 19 20 20 19 19 19 18 18 19 19 17 12 9 10 9 9
1 4 4 4 6 5 1 3 2 2 1 7 10 6 4 4 6 8 10 14 17 17 15 16 20 21 21 22 23 25 25 26 27 29 29 27 26 26 27 26 25 25 25 26 26 27 29 29 29 30 29 29 28 28 27 27 27 27 27 27 27 26 26 25 24 24 24 24 24 23 23 22 21 21 21 21 21 21 21 21 21 21 21 20 20 20 19 18 18 18 16 15 14 11 9 9 8
2 3 5 5 6 4 3 3 3 1 3 6 9 8 10 8 7 10 11 11 14 16 15 15 19 22 23 23 24 25 26 27 28 28 28 26 25 26 27 27 26 25 25 25 25 27 28 28 29 30 30 30 29 29 28 28 28 28 28 28 28 28 28 27 26 26 26 26 26 25 24 24 23 22 22 22 22 22 22 22 22 21 21 20 20 20 19 18 17 16 14 13 13 12 9 8 8
6 6 6 5 5 5 5 3 3 1 3 6 7 8 14 13 12 18 19 14 12 16 15 14 19 22 23 24 24 25 26 27 27 26 26 25 26 27 28 28 27 27 26 26 27 28 28 29 30 31 31 31 31 30 29 29 30 30 30 30 30 30 30 30 29 30 29 29 29 28 27 26 25 25 24 23 23 23 23 23 22 20 20 20 20 19 18 16 14 13 13 11 11 12 10 8 7
11 8 7 6 6 6 5 2 2 2 3 7 9 10 13 13 12 16 20 18 16 17 16 16 20 22 22 24 24 25 27 28 26 25 25 25 27 28 29 30 29 28 27 27 28 29 30 30 31 32 32 32 33 32 32 32 32 32 32 32 33 33 33 32 32 32 32 32 31 30 29 28 27 26 26 25 24 24 23 22 21 19 19 19 18 18 16 15 13 13 13 12 12 12 11 10 8
10 7 7 6 6 6 2 2 2 2 4 7 7 9 12 13 12 12 16 17 16 17 17 18 22 24 25 25 25 25 25 25 24 24 26 27 28 29 30 31 31 30 29 29 30 30 31 31 32 33 33 33 35 36 36 36 35 35 35 35 36 35 34 34 35 35 34 34 33 32 30 29 29 28 27 26 25 24 24 23 22 20 20 20 19 18 16 15 15 15 13 13 13 11 9 9 8
9 7 7 7 6 5 2 1 1 2 3 6 5 8 13 14 13 14 14 14 15 18 18 19 21 23 27 28 28 28 26 24 22 22 24 28 29 29 31 32 32 32 31 31 30 30 31 31 32 33 33 34 37 38 38 38 38 36 36 36 36 36 36 36 37 36 35 35 35 34 32 31 30 29 28 26 26 25 25 25 23 22 22 21 20 20 18 17 18 16 14 13 12 10 8 8 8
7 6 5 6 4 3 3 3 1 2 2 7 6 8 14 15 14 15 16 15 17 23 24 23 22 21 24 29 31 31 30 28 25 22 22 26 28 28 30 31 32 32 32 32 31 31 31 32 32 32 33 36 38 39 39 40 39 37 36 36 36 35 36 37 37 36 36 36 36 36 34 33 33 32 30 28 27 27 26 26 25 22 22 22 21 21 21 21 19 17 17 14 11 10 10 11 9
4 5 6 5 3 2 4 3 2 2 2 6 8 9 12 15 14 15 19 19 21 27 30 29 28 24 24 29 32 32 31 31 28 24 23 23 26 28 29 31 32 32 33 33 33 33 34 33 32 32 33 35 38 40 40 40 39 38 37 37 36 36 36 36 36 37 36 36 36 36 35 34 34 34 33 30 29 28 27 27 26 23 22 23 22 20 20 21 19 17 19 17 12 11 11 11 11
4 5 7 4 3 4 3 1 1 3 3 2 7 10 9 10 13 12 12 14 17 22 27 28 29 29 28 30 32 32 32 32 31 27 25 24 25 26 28 30 32 32 33 33 34 34 35 33 32 32 32 34 36 39 39 39 39 39 39 39 38 38 38 39 39 39 38 37 37 36 36 35 35 34 33 31 31 29 29 28 27 24 22 22 22 21 20 20 19 18 18 17 14 12 12 12 13
4 6 9 7 5 5 2 1 3 4 3 1 4 8 5 2 7 9 5 6 9 12 15 19 24 26 28 30 31 32 32 32 33 31 29 27 26 26 27 29 32 34 33 33 35 35 35 34 33 32 32 33 34 36 37 37 39 41 41 42 42 42 43 43 44 43 40 38 37 37 36 36 35 33 32 32 31 30 30 30 29 28 25 24 24 23 21 18 17 17 17 17 16 12 12 14 15
3 5 8 8 5 4 3 1 3 4 4 1 1 6 6 4 8 10 8 9 10 9 10 13 20 24 26 29 31 31 31 31 32 32 31 30 29 28 28 28 30 32 33 33 34 35 35 34 34 34 33 34 34 35 36 36 38 41 43 44 45 45 45 45 44 43 41 39 38 37 36 36 34 33 32 32 30 29 29 30 30 29 27 26 26 25 23 19 17 16 17 18 17 15 15 16 17
3 5 9 9 7 6 5 3 3 3 4 3 3 3 8 9 9 9 9 12 14 14 13 12 18 26 30 31 32 31 31 30 30 31 31 31 30 29 29 28 28 28 30 33 33 33 34 34 34 35 34 35 35 36 36 36 36 39 42 44 46 46 46 46 45 43 41 39 38 38 37 36 34 33 32 31 29 29 29 29 27 27 27 26 27 27 25 22 19 18 18 19 18 18 18 18 18
2 6 8 8 6 5 4 2 2 2 4 6 4 3 6 9 4 4 5 10 15 14 13 12 15 24 30 33 33 32 31 31 30 31 31 31 30 30 29 29 28 27 28 31 32 32 33 34 35 35 36 35 35 36 37 38 37 38 40 42 45 46 47 46 45 45 43 41 40 39 38 37 34 32 30 29 28 27 29 29 27 28 29 27 28 29 26 23 21 20 21 21 20 19 19 20 21
4 7 7 7 4 4 3 1 0 1 3 9 5 6 6 9 4 5 4 7 12 10 8 11 14 20 26 29 30 28 27 28 30 31 31 32 31 30 30 30 30 28 28 29 31 33 34 34 35 36 36 36 36 37 37 38 39 39 40 42 44 45 46 46 46 46 45 43 42 40 38 37 34 31 29 29 27 26 27 27 28 31 30 27 28 28 26 24 21 20 21 22 21 20 21 22 23
10 8 8 8 4 3 2 1 2 1 5 7 6 10 7 7 3 6 4 2 5 6 6 9 12 17 22 26 26 24 24 26 27 28 30 32 32 33 32 31 31 30 30 30 31 34 35 35 36 36 36 37 37 38 38 39 40 41 42 42 43 44 44 46 46 46 46 45 44 41 39 38 35 32 29 28 27 27 27 26 27 29 27 27 28 25 25 25 22 20 21 22 22 22 23 24 25
12 5 6 6 2 2 1 1 1 5 6 1 1 6 9 9 4 1 3 4 4 5 6 7 9 13 18 20 20 18 20 21 22 23 24 26 28 30 32 32 32 32 32 32 32 33 34 35 36 37 37 38 38 38 39 40 41 43 43 43 44 44 44 45 45 45 45 45 44 41 40 39 36 33 30 29 27 27 27 27 26 26 26 29 27 24 28 29 24 23 24 24 25 25 25 26 25
6 4 7 6 2 3 3 3 3 6 5 1 2 1 7 11 7 6 11 12 8 7 8 10 12 14 16 18 16 15 16 18 18 19 19 19 21 22 24 25 27 29 30 30 31 32 34 36 37 38 39 39 39 39 39 40 41 43 44 44 45 45 45 46 45 45 44 43 43 41 40 40 38 34 32 30 28 27 28 28 28 27 27 28 26 26 30 29 24 24 25 25 26 25 24 24 23
6 7 8 6 5 5 8 7 4 5 3 2 1 1 5 10 6 6 11 11 7 6 10 14 17 19 20 21 22 22 22 21 20 19 18 17 18 19 20 20 21 23 24 25 27 29 32 35 38 40 41 41 42 42 41 41 41 42 43 44 46 46 46 46 46 45 44 42 42 41 40 39 37 35 32 30 27 26 27 28 28 28 27 28 26 26 27 26 25 25 26 27 25 23 23 23 21
6 6 4 3 4 5 7 6 5 3 1 2 3 2 5 5 2 2 7 8 10 15 17 16 16 18 19 21 22 22 21 19 17 18 17 17 19 20 21 22 21 22 24 24 26 27 29 32 35 38 41 42 44 45 45 45 43 42 42 44 44 45 46 46 46 45 44 43 42 40 40 38 37 34 30 27 26 25 27 27 28 28 28 28 28 26 25 25 27 27 28 28 25 23 22 21 20
4 3 1 3 2 1 2 1 1 1 0 3 5 4 5 3 6 10 11 9 13 16 15 13 13 12 13 15 14 13 12 12 12 14 15 15 17 19 21 22 23 23 25 26 28 29 30 31 32 35 37 38 41 44 46 47 46 44 43 44 44 44 45 46 46 45 45 44 42 40 39 38 36 32 28 26 26 26 27 27 28 28 29 29 29 28 27 26 27 28 28 26 23 22 22 20 19
4 5 5 2 1 2 2 1 2 1 4 4 4 6 6 5 9 11 7 6 9 9 7 6 6 5 7 9 8 8 8 8 8 10 12 14 15 16 18 20 21 22 24 26 27 29 30 30 32 33 34 36 38 41 43 45 46 46 45 44 43 44 45 45 45 44 44 44 42 40 38 37 35 32 29 27 27 27 27 28 28 29 29 30 31 30 28 28 28 28 27 26 23 22 22 20 19
5 7 7 4 2 2 1 3 1 2 6 3 3 8 7 5 5 2 2 5 7 6 5 4 2 3 4 6 7 8 10 13 12 10 8 9 11 12 14 15 17 19 20 22 23 25 26 26 28 29 31 33 35 38 40 42 44 45 45 44 44 44 44 43 43 43 43 43 43 40 38 36 34 32 30 28 28 28 28 29 30 29 30 31 32 31 29 29 29 29 27 26 24 22 21 20 18
1 4 9 6 3 4 4 3 3 4 6 4 4 6 7 7 6 3 6 8 7 6 2 5 2 2 3 4 6 8 11 14 18 19 18 16 15 13 13 13 14 15 16 16 18 19 21 21 22 23 25 26 29 33 36 39 41 42 43 44 43 44 43 42 42 41 41 42 42 39 36 35 33 32 30 29 29 29 29 31 31 31 32 32 31 30 29 29 28 27 26 24 23 23 21 18 18
2 3 7 3 2 4 5 3 2 3 5 5 2 2 4 7 7 8 10 7 6 6 2 3 4 3 2 2 3 6 10 13 17 19 19 20 19 19 18 16 15 15 14 15 15 16 18 19 19 20 20 21 23 27 31 35 37 38 40 41 41 42 41 41 41 40 40 40 39 37 35 33 32 31 30 30 30 30 31 32 33 33 33 32 31 31 30 29 27 26 25 24 23 22 20 18 18
5 7 9 6 3 1 2 3 2 2 3 4 3 4 5 3 4 8 10 7 5 4 4 1 5 4 4 2 1 5 9 13 17 18 19 19 19 20 21 19 18 17 16 16 16 17 17 18 18 18 19 19 20 22 26 30 32 34 36 37 38 39 38 39 39 38 38 38 36 35 33 32 31 30 30 31 31 32 32 33 34 34 33 32 32 30 29 28 28 27 25 23 22 21 20 19 19
9 8 9 11 8 5 5 6 3 1 2 2 2 6 6 3 4 6 8 5 3 1 2 2 3 6 6 3 1 3 8 13 16 17 18 19 20 22 23 22 20 18 17 17 16 17 16 17 18 18 19 19 19 20 22 25 28 30 33 34 35 35 36 37 37 36 36 35 34 32 31 30 30 30 31 31 32 33 33 34 35 34 32 32 31 29 28 28 27 27 25 23 22 21 20 20 21
Wind_Direction
319 329 341 342 342 335 324 323 306 85 310 109 84 144 127 91 6 183 157 148 148 154 178 132 154 157 149 309 304 7 32 95 12 342 98 124 144 145 143 141 137 129 131 143 146 141 131 126 116 108 119 126 121 113 106 104 99 98 94 97 102 101 112 106 104 105 100 95 90 93 95 98 97 92 92 93 92 92 93 91 91 91 91 89 87 87 89 88 89 91 89 89 91 91 92 92 91
311 325 333 338 340 337 342 328 311 117 284 122 106 7 105 145 196 189 166 154 85 137 169 148 156 169 198 312 269 212 104 60 36 62 112 140 144 144 143 137 130 125 124 138 140 136 138 129 120 118 127 128 119 118 114 109 107 113 110 102 102 106 117 105 98 96 96 101 99 96 91 93 97 97 94 94 95 93 94 94 92 93 93 92 89 88 89 89 90 92 91 89 88 90 92 91 88
304 320 328 334 338 344 0 302 310 18 337 86 101 105 131 183 184 162 142 101 82 136 152 146 160 174 245 243 206 277 82 76 127 111 132 143 146 147 143 137 129 125 126 135 136 135 141 133 127 123 130 134 125 127 123 116 120 127 125 116 114 109 106 105 103 100 102 103 102 99 94 93 98 103 100 98 99 98 97 96 94 94 94 92 89 87 88 89 90 91 91 88 87 89 89 87 83
306 319 328 333 329 348 353 298 17 316 3 57 60 126 187 201 163 118 99 103 121 134 143 152 166 185 237 271 254 355 88 117 129 131 143 146 154 152 142 137 129 124 130 134 136 136 142 139 134 125 128 141 136 134 135 132 137 143 145 139 133 128 104 98 105 108 108 95 93 98 96 97 98 103 102 99 99 101 98 92 89 87 87 88 88 86 85 86 85 86 88 88 87 86 84 82 78
311 321 327 328 316 4 1 79 83 306 41 44 27 117 201 197 148 121 115 126 132 127 148 167 172 181 215 303 348 8 100 137 149 145 148 152 158 152 142 137 129 128 134 136 137 135 145 145 141 133 132 147 149 144 147 150 156 163 171 166 151 150 116 98 97 101 99 88 86 94 99 99 99 104 103 100 99 98 98 97 95 92 88 87 87 86 84 83 83 83 84 84 83 81 79 76 73
314 330 338 345 14 55 246 190 124 63 59 352 10 70 189 180 149 133 133 135 140 133 156 180 198 161 181 222 190 146 138 143 159 157 155 158 156 151 144 137 131 133 136 138 138 134 145 152 151 143 142 155 166 162 154 155 162 171 181 184 177 140 107 95 92 95 97 94 94 99 103 101 101 107 107 105 103 99 100 104 105 105 100 93 89 87 85 84 83 82 81 79 78 76 75 73 71
308 339 343 7 82 21 263 169 57 88 85 312 4 41 133 160 152 140 147 155 164 176 172 190 201 168 158 162 168 169 163 148 160 163 161 160 156 152 146 139 134 137 138 140 140 140 145 154 158 155 153 155 166 174 172 160 151 157 163 173 178 129 102 98 100 108 111 110 113 114 111 109 107 109 108 104 103 104 105 106 107 106 101 94 91 89 88 87 84 81 79 77 76 75 74 72 70
298 335 351 328 103 3 282 67 279 37 76 262 315 353 70 153 159 154 161 165 173 183 186 194 200 210 167 137 155 176 173 157 163 166 164 161 157 155 149 141 137 141 140 143 146 145 144 152 163 165 162 151 155 172 185 170 151 150 138 134 144 125 111 111 122 130 124 121 125 119 115 115 110 109 108 106 104 105 104 103 102 100 96 93 93 91 90 87 83 82 80 79 77 76 75 73 71
315 325 355 297 254 4 217 292 207 323 264 214 242 237 314 169 168 166 168 163 161 169 180 185 198 226 151 145 153 174 183 166 163 166 166 162 158 155 149 143 138 142 140 143 148 147 150 154 166 168 166 158 153 166 173 167 157 151 134 122 128 129 128 131 141 146 134 127 126 119 117 115 110 110 110 108 105 103 101 100 98 95 95 94 95 93 90 87 84 82 81 80 78 78 76 75 73
334 17 110 62 245 252 219 240 115 241 232 221 252 229 199 175 174 174 171 166 158 165 179 179 198 226 156 157 154 172 181 167 165 170 169 164 160 155 148 144 139 144 140 142 147 148 157 159 167 168 167 164 160 162 149 152 157 149 140 134 136 141 143 144 143 141 134 124 120 116 115 114 111 110 108 105 103 102 101 99 97 96 97 96 95 92 90 88 85 83 81 81 79 79 76 74 72
217 52 127 203 226 255 233 151 62 299 269 269 259 222 194 173 170 171 172 172 163 159 171 178 197 192 170 159 175 186 175 168 170 171 170 167 162 156 151 148 145 150 143 140 147 151 160 167 173 170 167 168 167 161 134 144 157 150 148 148 149 150 149 151 142 131 128 119 116 114 113 112 110 109 107 105 102 102 102 101 101 101 101 99 97 93 91 90 87 84 82 80 78 77 74 72 69
206 71 226 229 228 274 331 324 317 322 290 258 194 182 181 169 168 177 184 181 169 170 173 185 204 176 171 144 188 187 175 172 174 173 171 168 165 161 157 152 151 158 152 143 148 155 164 173 175 177 176 174 170 157 139 149 158 152 151 154 156 155 157 158 145 134 128 120 118 116 114 112 110 109 106 105 103 103 104 105 106 106 105 102 99 96 93 91 89 87 83 81 78 76 73 71 67
77 63 249 223 213 334 107 297 317 305 277 83 51 160 171 169 180 184 179 175 169 175 182 194 201 178 182 148 195 187 178 176 174 176 173 170 170 166 162 159 158 164 164 152 154 158 166 175 177 181 182 180 173 158 148 154 158 154 149 151 154 152 155 157 148 138 128 122 121 117 114 112 111 109 106 104 103 104 106 108 110 109 108 104 101 98 96 94 92 90 86 83 78 76 72 69 66
58 50 278 207 93 177 216 276 321 272 94 52 37 156 170 175 197 181 173 181 179 183 190 194 192 184 196 188 193 189 184 178 176 177 174 174 174 171 169 167 165 170 174 164 163 162 167 179 180 180 182 182 175 163 156 156 156 155 152 149 149 147 148 149 145 136 128 126 123 120 118 116 114 111 108 105 104 106 109 110 111 109 107 104 102 101 99 97 94 91 87 84 79 75 71 68 65
48 57 8 195 166 196 223 326 26 265 44 27 53 156 179 200 199 182 190 199 187 193 190 189 191 188 204 192 178 189 191 180 176 177 176 178 177 177 176 174 174 175 181 180 174 168 169 180 184 181 181 181 177 171 163 158 155 153 154 148 145 149 148 144 142 138 135 133 129 127 126 122 120 115 111 108 107 108 108 109 108 106 106 104 104 102 101 98 95 92 87 84 80 76 72 67 63
36 54 207 218 201 205 200 161 203 239 43 28 139 163 187 219 198 186 207 209 188 196 191 187 196 199 171 192 186 193 194 181 177 178 179 182 181 183 182 181 183 182 187 190 186 175 173 181 186 185 181 181 180 178 170 162 159 154 152 147 146 149 148 146 145 144 142 139 137 136 133 129 124 119 117 115 114 114 112 110 107 106 105 104 104 102 100 98 95 92 89 85 80 75 70 65 60
33 82 226 223 211 203 178 182 198 194 53 46 144 181 198 213 200 201 213 203 201 199 198 204 204 209 195 190 211 196 192 183 179 181 183 187 186 188 188 189 188 189 191 192 195 185 178 183 186 189 184 181 180 179 176 167 162 159 156 152 153 152 151 151 150 151 149 146 144 142 139 135 131 127 125 123 122 123 120 116 111 108 104 101 101 99 99 95 93 90 85 80 75 70 63 58 53
28 202 225 228 211 169 154 179 179 51 30 39 88 200 214 215 192 203 213 198 206 205 206 217 214 216 213 201 205 193 190 186 184 185 188 191 192 193 193 195 194 194 196 194 196 194 187 185 186 190 189 183 179 179 177 171 167 164 161 159 159 157 156 156 154 156 154 152 151 149 147 143 141 139 134 132 130 127 123 115 110 106 101 100 95 92 92 90 89 84 78 73 67 63 56 51 46
93 153 226 231 161 98 69 42 75 273 344 11 30 200 215 228 194 202 225 204 199 211 209 216 221 219 217 210 202 196 192 189 190 191 194 196 198 199 198 200 200 198 200 199 198 199 195 191 190 189 190 188 182 180 178 175 172 169 166 164 164 162 161 161 159 159 160 159 157 156 154 153 152 149 146 143 139 134 127 119 113 108 101 91 84 77 73 72 73 70 68 62 56 52 47 43 38
145 188 234 203 95 100 132 119 177 289 320 342 353 187 210 225 212 204 233 222 204 224 215 204 218 222 217 209 202 198 194 194 196 197 199 202 204 205 205 206 206 204 204 203 202 203 202 198 195 192 190 189 186 184 181 179 177 174 171 168 167 166 165 165 165 164 166 165 163 164 163 162 162 159 158 155 152 150 143 139 129 123 115 89 74 56 42 39 39 40 38 38 36 34 32 27 23
168 195 238 124 134 168 147 159 273 296 304 316 315 206 210 223 218 209 221 233 227 232 226 219 226 227 218 208 205 199 196 199 200 202 204 207 209 209 210 212 212 212 209 208 208 207 206 203 200 197 194 190 190 189 185 183 182 179 176 173 172 171 170 169 170 170 171 171 170 172 171 170 170 170 169 168 169 169 169 168 166 170 182 202 251 318 335 345 350 352 352 353 354 358 359 3 7
181 181 106 123 158 168 127 113 314 306 297 277 264 242 220 199 214 212 213 233 244 242 238 240 242 238 228 215 209 201 198 203 204 207 209 211 213 213 213 214 215 216 214 213 212 211 210 207 203 201 199 194 192 191 191 189 187 186 183 180 177 175 175 174 174 175 176 176 177 178 178 178 179 179 180 181 185 189 193 196 200 209 218 234 251 265 280 296 308 315 319 323 326 333 338 344 348
216 189 138 147 168 137 103 359 329 307 279 249 252 260 241 203 223 220 221 236 249 259 264 262 251 243 237 223 216 209 203 206 209 213 216 216 217 218 218 216 216 218 217 216 215 214 213 211 208 205 201 199 196 194 195 194 192 193 191 187 184 182 181 180 180 180 181 182 182 184 185 186 188 190 193 195 201 207 213 219 223 228 234 243 252 259 271 279 286 294 297 303 310 317 324 327 331
236 218 153 167 182 154 67 4 337 312 281 260 263 266 237 226 246 228 232 245 250 254 258 260 255 241 230 222 220 219 215 214 216 220 221 222 222 222 222 221 220 221 221 220 217 216 215 215 213 209 205 202 201 199 198 199 198 198 197 195 191 188 186 185 186 186 187 188 188 190 192 194 197 201 204 209 215 221 230 235 239 243 245 249 254 258 266 271 277 281 285 294 300 305 308 311 314
232 223 137 168 198 218 324 346 345 344 320 290 266 256 244 241 250 246 254 261 259 256 252 245 246 238 225 223 222 221 221 220 221 222 223 224 224 223 223 222 222 222 223 222 220 219 217 216 216 214 210 205 204 204 204 203 203 203 202 200 198 195 192 190 191 192 193 194 195 196 198 201 204 208 213 219 224 230 238 243 247 251 254 255 256 260 264 269 273 275 279 285 289 293 296 299 302
216 193 134 164 208 255 310 333 342 339 324 304 265 255 255 243 247 259 263 268 266 257 248 241 238 237 231 225 224 223 222 223 223 224 225 225 224 225 225 224 224 223 223 222 221 221 219 218 218 217 215 211 209 208 209 209 208 208 207 205 204 201 199 198 197 198 199 199 201 202 203 207 209 214 218 223 229 235 242 246 251 254 257 260 261 264 265 268 271 273 276 278 282 285 287 289 290
163 179 175 219 261 279 293 304 305 312 315 296 258 270 282 230 229 250 254 277 279 252 241 238 234 236 237 230 227 226 225 227 226 225 225 224 224 226 226 226 226 225 224 222 222 222 221 220 219 219 219 217 215 212 212 212 211 211 210 210 209 206 205 204 204 204 204 204 206 207 208 211 213 218 221 226 232 238 244 248 252 254 257 260 262 265 266 269 271 273 275 276 278 280 282 283 284
119 162 200 268 282 283 275 276 286 294 304 284 253 277 279 203 215 241 250 274 288 255 239 237 233 234 236 235 232 228 227 228 226 225 226 227 228 230 230 230 229 229 227 224 223 223 222 221 221 220 221 221 220 218 217 215 213 212 212 212 211 211 210 210 210 209 209 211 212 213 214 216 218 221 225 229 233 239 243 247 251 254 256 259 261 263 264 267 270 273 275 276 277 277 279 280 281
126 138 195 256 270 268 250 246 256 254 267 268 251 278 252 200 226 246 256 263 261 248 240 234 233 233 232 233 232 230 230 227 225 227 230 233 233 234 236 236 234 233 232 229 226 226 225 224 223 222 222 223 222 221 222 220 218 215 215 215 214 214 215 216 216 215 216 217 218 219 220 221 223 226 229 231 235 239 242 246 250 253 255 257 260 262 264 267 269 271 274 274 275 276 277 277 279
149 144 251 243 262 263 224 220 225 223 243 222 157 272 250 202 236 247 253 252 241 237 238 234 233 233 231 231 231 232 232 230 230 232 234 234 234 237 239 238 237 236 235 233 229 228 229 228 225 224 224 225 223 223 224 224 223 223 221 220 220 219 220 221 221 222 223 222 224 224 224 226 228 230 233 235 238 241 244 247 249 251 254 257 259 262 264 265 267 269 271 273 275 276 277 278 278
157 143 212 227 255 239 140 172 190 203 225 191 176 257 259 253 264 258 254 247 239 235 237 238 236 235 234 233 233 235 235 236 237 237 236 236 236 238 241 240 238 237 237 235 232 229 229 230 228 227 227 227 226 225 225 226 226 227 228 227 227 227 227 227 227 228 228 228 228 228 228 230 232 235 237 239 242 244 247 249 250 252 254 256 258 260 262 264 266 268 270 274 277 278 278 280 279
153 191 196 188 236 221 132 158 186 218 208 169 187 249 260 262 272 266 260 249 237 234 237 239 239 239 238 236 236 237 238 239 239 239 237 236 237 239 241 241 239 238 238 237 234 230 229 229 229 229 229 229 228 227 228 228 228 229 230 232 232 233 233 232 232 232 232 232 233 232 232 233 235 238 240 242 245 247 249 249 250 250 253 255 257 258 260 263 267 270 274 277 278 276 276 277 277
155 224 211 183 218 238 200 143 161 274 195 184 212 252 267 251 266 266 270 258 238 234 235 236 239 241 240 239 239 239 239 240 239 239 239 238 238 240 242 242 242 241 240 240 237 233 232 229 228 228 229 230 230 230 230 229 229 230 231 232 234 236 236 236 235 235 235 235 235 235 235 236 238 240 242 244 247 249 250 250 249 249 251 253 256 258 260 263 268 274 278 279 278 276 273 274 275
148 218 222 206 213 239 231 138 73 285 216 220 220 243 258 260 287 290 293 277 245 240 239 236 240 240 242 242 241 242 241 241 241 241 241 242 242 243 244 244 243 242 240 239 239 237 235 232 230 229 230 231 231 231 231 231 231 232 232 233 234 236 237 238 237 237 237 236 237 238 239 241 243 244 245 246 249 252 252 251 250 251 252 253 256 261 265 265 267 273 275 276 277 273 268 269 272
178 197 205 215 215 231 242 196 68 58 221 238 220 233 256 261 277 278 280 276 252 252 251 246 249 246 245 244 242 244 244 244 245 245 246 245 245 244 245 245 244 242 240 238 237 237 236 234 232 231 231 232 232 232 232 232 232 233 234 233 233 234 235 236 237 238 238 238 238 239 241 244 246 247 248 249 250 253 255 255 253 255 256 257 259 261 267 269 271 277 275 270 271 268 265 261 257
194 198 207 221 218 223 241 207 70 23 261 253 240 243 258 261 261 260 266 266 254 257 260 255 256 254 250 246 243 243 244 249 249 248 248 246 245 245 244 245 245 243 241 239 237 237 236 235 234 233 230 230 233 233 232 232 232 232 232 233 232 232 232 234 236 237 238 239 241 241 242 245 246 248 249 250 251 253 255 256 257 258 258 260 261 260 263 266 271 279 275 267 268 270 274 269 248
199 201 217 224 229 229 210 139 98 25 280 260 247 254 264 264 260 254 257 262 257 256 257 255 256 256 254 251 248 246 246 252 253 249 247 246 245 245 244 244 245 244 241 240 238 237 236 235 235 234 231 230 231 233 232 232 232 231 230 232 232 231 231 233 236 237 239 241 243 244 243 244 246 248 249 250 251 252 254 254 254 255 256 258 261 262 261 260 263 273 274 271 270 268 274 270 234
197 201 216 223 232 242 204 167 117 87 271 263 257 268 269 264 262 260 253 251 252 252 252 254 255 257 258 258 256 254 252 252 253 251 246 244 243 244 244 244 244 243 240 239 239 239 239 238 238 237 233 232 232 233 234 234 233 232 232 233 234 233 233 234 237 239 240 242 245 246 245 246 247 248 248 249 250 251 252 254 253 252 254 258 260 261 260 258 259 266 271 272 275 269 252 239 223
193 194 211 224 217 248 236 199 174 135 250 274 284 283 276 271 265 259 253 245 249 256 256 256 258 256 256 261 263 261 260 256 253 252 248 243 241 242 243 243 243 243 241 241 241 241 242 241 240 238 236 235 234 234 235 237 237 235 235 237 238 238 238 239 240 242 244 245 248 249 249 250 250 249 247 246 248 249 250 253 253 252 252 256 260 260 258 256 257 259 263 265 270 266 241 225 222
188 187 201 218 169 222 241 185 167 197 245 287 296 290 278 274 264 254 248 240 245 257 260 260 259 257 256 262 266 266 265 262 257 253 250 246 242 240 240 240 241 243 243 241 240 241 241 241 241 239 238 237 237 236 235 237 240 240 240 241 242 243 244 245 245 245 245 246 248 249 250 250 250 249 246 242 244 247 249 250 252 252 250 253 258 260 258 256 253 253 256 257 256 252 242 231 221
200 207 212 215 174 219 250 30 315 235 203 271 301 291 270 259 256 255 247 234 239 250 255 259 258 257 260 262 263 264 264 264 262 257 253 250 246 243 242 241 241 242 242 242 242 242 242 243 243 242 242 241 241 240 238 237 239 241 242 242 244 244 244 245 244 243 242 243 244 245 247 247 247 247 244 241 240 241 245 248 250 249 247 251 256 261 263 256 249 249 249 249 250 247 243 236 225
201 220 222 218 210 221 229 5 318 273 233 111 334 288 264 244 262 268 264 244 248 246 244 253 258 258 259 258 258 261 263 264 263 261 256 254 251 248 246 245 243 241 241 243 243 244 245 245 245 245 245 244 245 245 243 240 239 240 241 241 241 241 241 241 241 241 240 241 242 243 244 244 244 244 242 240 239 238 239 243 246 246 245 250 254 259 264 254 244 246 244 242 247 247 241 240 236
207 196 200 206 204 193 187 236 286 281 270 30 358 276 280 304 282 272 270 269 263 247 235 243 253 258 256 255 258 260 261 262 263 262 259 256 254 252 250 248 247 243 241 242 243 245 246 246 246 246 245 245 245 246 246 244 241 240 241 242 243 242 242 243 243 244 244 243 244 243 244 243 242 243 243 242 241 240 240 240 241 242 243 247 250 254 256 248 240 244 243 238 243 245 241 245 248
205 150 161 177 183 182 192 220 247 285 314 281 208 246 284 283 273 262 258 268 264 248 239 233 241 252 254 253 255 257 259 260 260 261 260 257 256 255 254 253 252 249 243 241 241 243 245 245 245 245 244 244 244 244 246 246 243 242 243 243 244 245 245 246 247 248 248 247 246 244 243 242 240 241 244 244 241 241 243 242 241 242 241 241 245 250 250 244 242 244 240 235 241 247 246 249 255
176 140 150 163 170 174 174 190 245 339 331 272 201 143 275 271 252 235 225 250 260 252 245 239 237 247 252 252 251 252 256 257 256 257 258 259 258 258 257 256 256 253 247 242 241 241 242 242 243 243 244 243 243 244 244 245 245 244 244 244 245 246 246 247 248 249 249 249 248 245 243 242 240 240 243 244 242 238 239 240 241 245 243 237 238 244 247 244 241 243 243 239 244 250 252 254 256
127 135 115 103 91 79 85 104 53 33 283 266 219 158 256 279 241 215 208 233 257 260 253 253 248 248 252 255 254 253 254 256 255 254 255 257 259 259 259 258 256 253 250 246 242 241 240 241 242 243 245 245 244 245 244 245 245 245 245 245 246 247 247 247 247 248 249 248 247 245 242 241 240 240 241 242 242 238 237 235 234 239 242 240 241 243 244 241 235 242 246 242 244 249 251 251 254
127 130 105 91 74 60 52 53 68 298 261 257 208 176 221 282 235 200 212 245 270 274 260 255 255 255 257 259 260 258 256 257 258 256 253 254 256 258 259 258 257 255 252 248 244 243 242 243 243 244 245 246 245 245 245 245 246 246 245 246 247 247 247 248 247 247 247 247 247 244 241 239 238 238 238 240 240 237 237 235 233 235 236 241 247 247 246 241 232 238 244 241 244 248 248 248 252
135 134 126 112 88 87 83 65 121 240 244 286 231 182 205 240 228 175 307 315 278 263 266 268 268 267 266 266 268 268 265 265 268 268 263 259 258 260 261 260 258 257 255 252 249 247 247 246 246 245 245 245 246 245 245 246 246 247 246 246 247 248 248 248 248 248 248 247 247 245 242 240 238 236 235 236 237 236 236 235 237 238 234 237 240 239 245 246 237 235 240 242 246 247 247 249 252
147 136 144 136 129 155 196 206 196 232 233 66 11 179 213 242 259 285 286 281 262 243 249 265 273 274 276 277 282 288 289 287 283 280 276 271 266 265 266 265 262 261 259 257 254 251 251 250 249 248 246 245 245 245 245 245 245 246 247 247 247 248 248 249 249 249 249 248 247 245 243 242 240 237 234 234 236 237 237 237 238 240 240 242 241 235 241 246 240 237 241 246 248 246 246 251 256
165 155 164 165 158 182 207 205 208 240 229 152 112 108 250 263 277 274 272 280 287 276 269 270 271 272 278 283 289 294 296 296 292 286 281 274 269 267 269 269 268 267 266 263 259 255 253 252 252 251 250 248 246 245 245 245 246 246 247 247 247 247 248 249 249 249 249 249 247 245 244 244 243 240 237 236 238 239 241 241 241 241 242 245 246 244 244 243 239 239 242 247 247 244 246 252 255
179 167 179 196 172 197 209 202 212 223 185 175 168 180 242 250 22 309 261 269 281 282 283 284 278 277 283 287 291 296 296 295 290 284 278 272 267 267 268 269 268 268 268 267 265 261 258 256 256 255 254 251 248 246 245 245 246 246 246 246 246 246 247 248 249 250 250 249 248 246 245 245 244 243 239 236 238 240 241 241 241 240 240 243 246 247 246 241 238 239 242 245 244 242 246 250 250
196 157 188 236 203 177 177 207 248 150 267 214 193 231 257 271 310 285 267 268 273 272 275 284 287 291 294 293 298 306 306 301 294 286 282 277 272 269 268 269 266 263 263 264 265 263 261 261 260 259 257 254 249 246 244 244 245 246 245 244 245 245 246 247 248 248 249 249 249 248 246 246 245 244 240 236 235 237 237 238 238 237 238 242 244 245 245 242 239 241 242 243 243 243 246 246 242
175 183 200 205 57 67 135 176 51 63 258 232 193 251 273 286 286 274 260 277 282 263 240 253 281 301 308 313 330 347 354 349 325 303 291 286 287 284 278 271 267 265 263 262 261 260 259 261 263 261 257 253 250 246 244 243 244 245 244 243 243 244 245 246 247 248 248 249 249 248 246 246 245 244 241 237 235 235 234 234 234 236 237 239 242 243 242 238 238 243 243 241 242 243 240 236 234
169 187 177 133 42 6 200 226 138 183 249 251 204 244 258 260 263 219 213 275 295 273 215 177 232 302 333 354 23 32 35 40 36 24 359 328 317 311 300 287 277 275 273 269 266 263 264 266 268 266 261 257 254 249 244 243 243 244 243 242 241 242 243 244 246 248 248 248 249 247 245 245 244 242 239 236 234 234 233 232 233 235 236 237 241 242 240 236 236 241 240 237 236 233 229 228 227
216 167 155 148 210 210 184 211 206 199 237 255 224 241 251 236 222 208 255 282 315 301 222 131 161 275 356 22 44 45 45 51 49 44 37 26 14 360 341 320 303 292 285 279 275 274 276 278 277 274 270 266 262 255 248 244 244 243 243 243 242 242 243 244 245 246 248 248 249 247 245 244 242 240 237 233 232 232 230 232 234 235 236 238 239 238 237 238 238 237 233 228 225 223 223 223 223
31 149 168 176 257 210 188 189 211 207 221 241 241 248 243 218 204 213 230 257 300 292 267 141 169 219 321 353 20 28 37 45 43 38 33 28 23 15 4 348 330 314 301 293 285 282 281 280 280 278 276 272 266 260 252 247 245 245 244 245 244 243 244 245 245 246 247 249 249 248 245 243 241 239 235 231 229 229 229 231 234 236 237 239 237 235 235 236 234 230 225 220 219 220 221 221 218
165 179 184 192 184 204 230 200 211 235 216 235 260 263 251 193 182 207 208 226 266 280 295 205 158 202 257 249 354 15 33 35 29 23 18 17 17 12 5 356 342 326 313 306 299 295 291 286 283 279 275 272 268 262 255 249 247 246 246 247 247 246 245 246 247 247 247 249 249 247 245 242 240 237 233 230 228 227 228 231 235 238 238 239 240 237 232 229 227 224 220 216 216 217 217 216 212
182 187 192 195 183 168 194 193 181 262 241 224 265 279 270 177 164 207 211 234 273 298 279 240 203 236 235 192 161 16 31 22 12 8 4 3 5 5 1 354 346 333 319 312 308 306 306 303 298 290 283 278 272 267 260 255 251 248 248 248 247 247 246 245 246 246 246 247 246 244 242 239 237 234 230 228 226 227 228 230 235 238 238 240 242 235 226 224 222 219 216 214 213 214 213 211 208